ASIASAT 4

Last updated on Sun Jul 06 2025 00:02:42 GMT+0000 (Coordinated Universal Time)

1 27718U 03014A 25186.51850352 -.00000209 00000+0 00000+0 0 9994 2 27718 3.8160 80.1516 0002469 30.1394 147.6639 1.00273410 41826
UTC large
Height (km)
Speed (km/s)
/
Latitude / Longitude
Inclination (degrees)
Orbital Period (minutes)
Azimuth
Elevation
Range (km)
Doppler Factor

Next 0 passes for location: London (51.5072 / 0.1276)

Sorry there are no passes over London.